Temperature
16 16 16 16 16 16 16 16 16 16 16 16 16 16 16 16 16 16 16 16 17 17 17 18 18 17 17 17 17 17 16 16 16 15 15 15 15 15 15 15 14 14 14
16 16 16 16 16 16 16 16 16 16 16 16 16 16 16 16 16 16 16 17 17 17 18 18 18 18 17 17 17 17 17 16 16 16 15 15 15 15 15 15 15 15 14
16 16 16 16 16 16 16 16 16 16 16 16 16 16 16 16 16 16 17 17 17 18 18 18 18 18 18 17 17 17 17 16 16 16 16 16 15 15 15 15 15 15 15
16 16 16 16 16 16 16 16 16 16 16 16 16 16 16 16 16 17 17 17 18 18 18 18 18 18 18 17 17 17 17 16 16 16 16 16 16 15 15 15 15 15 15
16 16 16 16 16 16 16 15 16 16 16 16 16 16 16 16 17 17 18 18 18 18 18 18 18 18 18 17 17 17 17 16 16 16 16 15 15 15 15 15 15 15 15
16 16 16 15 15 16 16 15 16 16 16 16 16 16 16 17 17 18 18 18 18 18 18 18 18 18 17 17 17 17 16 16 16 16 15 15 15 15 15 15 15 15 15
16 15 15 15 15 15 15 15 15 16 16 16 17 17 17 17 18 18 18 18 18 18 18 18 18 17 17 17 17 16 16 16 16 15 15 15 15 15 15 14 14 14 14
16 15 15 15 15 15 15 15 15 16 16 16 17 17 17 17 18 18 18 18 18 18 17 17 17 17 17 17 17 16 16 16 15 15 15 15 15 14 14 14 14 14 14
15 15 15 15 15 15 15 15 15 16 16 16 17 17 17 17 18 18 18 18 17 17 17 17 17 17 17 16 16 16 16 15 15 15 15 14 14 14 14 14 14 14 14
15 15 15 15 15 15 15 15 15 15 16 16 16 17 17 17 17 17 17 17 17 17 17 17 17 16 16 16 16 16 15 15 15 15 14 14 14 14 14 13 13 13 13
15 15 15 15 15 15 15 15 15 15 15 16 16 17 17 17 17 17 17 17 17 17 17 17 16 16 16 16 15 15 15 15 15 14 14 14 14 13 13 13 13 13 13
15 15 15 15 15 15 15 15 15 15 15 15 16 16 17 17 17 17 17 17 17 17 16 16 16 16 16 15 15 15 15 14 14 14 14 14 13 13 13 13 13 13 12
15 15 15 15 15 15 15 15 15 15 15 15 16 16 16 17 17 17 17 17 17 16 16 16 16 15 15 15 15 14 14 14 14 14 13 13 13 13 13 12 12 12 12
15 15 15 15 15 15 15 15 15 15 15 15 16 16 16 16 16 16 16 16 16 16 16 16 15 15 15 15 14 14 14 14 14 14 13 13 13 13 12 12 12 12 12
15 15 15 15 15 15 15 15 15 15 15 16 16 16 16 16 16 16 16 16 16 16 15 15 15 15 14 14 14 14 14 14 14 13 13 13 13 12 12 12 12 12 12
15 15 15 15 15 15 15 15 15 15 15 15 15 16 16 15 15 15 15 15 15 15 15 15 14 14 14 14 14 14 14 13 13 13 13 13 13 12 12 12 12 12 12
15 15 15 15 15 15 15 15 15 15 15 15 15 15 15 15 15 15 15 15 15 14 14 14 14 14 14 14 14 13 13 13 13 13 13 13 13 12 12 12 12 12 11
15 15 15 15 15 15 15 15 15 15 15 15 15 15 15 14 14 14 14 14 14 14 14 14 14 14 14 13 13 13 13 13 13 13 13 13 13 12 12 12 12 11 11
15 15 15 15 15 15 15 15 15 15 15 14 14 14 14 14 14 14 14 14 13 13 13 13 13 13 13 13 13 13 13 13 13 13 13 13 13 12 12 12 11 11 11
15 15 15 15 15 15 15 15 14 14 14 14 14 14 14 14 14 14 14 13 13 13 13 13 13 13 13 13 13 13 13 13 13 13 13 13 12 12 12 11 11 11 11
15 15 15 15 15 15 14 14 14 14 14 14 14 14 14 14 13 13 13 13 13 13 13 13 13 13 13 13 13 13 13 13 13 13 13 12 12 12 11 11 11 11 10
15 15 15 15 14 14 14 14 14 14 14 14 14 14 13 13 13 13 13 13 13 13 13 13 13 13 13 13 12 12 12 12 12 12 12 11 11 11 11 11 10 10 10
15 15 14 14 14 14 14 14 14 14 14 14 14 14 13 13 13 13 13 13 13 13 13 13 13 13 13 13 12 12 11 11 11 11 10 10 10 10 10 10 10 10 9
15 15 15 14 14 14 14 14 14 14 14 14 14 14 14 13 13 13 13 13 13 13 13 13 13 13 13 12 12 12 11 10 10 10 9 9 9 9 9 9 9 9 9
15 15 15 14 14 14 14 14 14 14 14 14 14 14 13 13 13 13 13 13 13 13 13 13 13 13 12 12 12 11 11 10 9 9 8 9 9 9 9 8 8 8 8
15 15 15 14 14 14 14 14 14 14 14 14 13 13 13 13 13 13 13 13 13 13 13 13 12 12 12 12 11 11 10 9 9 8 8 8 8 8 8 8 8 7 7
Wind_Speed
8 14 22 21 20 18 17 15 15 15 15 15 17 19 20 21 21 21 20 20 19 19 19 19 19 18 18 17 16 16 16 16 16 16 16 16 16 16 16 15 14 14 15
12 18 23 21 20 19 17 16 15 15 15 15 17 19 20 21 21 20 20 19 19 19 19 19 18 17 16 15 15 14 14 14 15 15 15 15 15 16 16 15 15 14 15
14 18 21 21 20 19 17 17 16 15 15 15 16 18 20 21 21 20 19 19 18 18 18 18 17 16 14 13 13 12 13 13 12 13 12 12 13 15 15 14 14 14 14
15 17 19 21 21 19 18 17 17 16 16 16 16 18 19 20 20 19 18 18 17 17 17 16 15 14 13 12 12 12 12 12 11 11 11 10 11 13 14 14 14 14 13
12 16 19 22 21 19 18 17 17 16 16 16 16 18 18 19 18 18 17 17 16 16 15 15 14 13 12 12 12 12 12 12 11 10 10 9 10 12 13 13 13 13 13
10 15 19 22 20 19 18 17 17 17 16 16 16 17 18 18 17 17 16 15 15 14 14 13 12 12 12 12 12 12 11 11 10 9 8 7 8 10 11 11 12 12 12
10 14 19 21 20 18 17 17 17 17 16 16 16 16 17 17 16 16 15 14 13 13 12 12 11 11 11 11 11 10 9 9 8 7 5 5 6 8 9 10 10 11 11
11 12 18 20 19 18 17 16 17 17 17 16 15 16 16 16 15 15 13 12 12 11 10 10 10 10 10 10 10 9 7 7 6 5 3 3 4 6 7 8 8 9 9
10 10 12 16 17 16 16 16 16 16 16 16 15 15 15 14 14 13 12 11 10 9 9 8 8 8 8 9 8 7 6 5 5 3 1 0 1 3 4 5 6 6 7
10 9 9 13 14 13 13 15 15 16 16 16 15 14 14 13 12 12 10 10 9 8 7 6 6 6 7 7 7 6 5 4 3 2 2 2 2 1 2 2 3 3 4
10 9 9 10 11 12 12 13 14 15 15 15 14 14 12 11 10 9 8 8 7 6 5 4 4 4 5 6 6 5 5 3 1 1 3 4 4 3 2 1 0 1 1
11 10 9 9 10 11 10 10 11 11 12 13 12 12 10 9 8 7 7 6 5 4 3 3 3 4 4 4 5 4 3 2 1 2 4 5 6 6 5 4 3 3 2
10 9 9 9 10 9 8 9 8 9 10 11 12 11 10 8 6 6 5 4 3 3 2 2 2 3 3 3 3 3 2 2 2 4 6 7 7 8 7 7 6 6 5
9 8 8 8 8 8 9 8 8 8 8 8 10 11 9 6 5 5 4 4 3 3 2 1 0 1 2 3 3 3 3 3 4 5 7 7 8 9 9 9 8 8 7
10 9 8 8 8 8 7 6 7 7 8 10 11 11 11 7 5 5 4 5 5 4 4 3 2 2 2 3 3 3 3 4 5 5 7 8 9 9 10 11 10 9 7
14 12 11 10 8 8 7 6 6 7 8 9 10 12 13 10 8 6 5 5 5 6 5 4 3 2 2 2 3 3 4 5 5 6 7 8 9 9 10 11 11 9 6
14 14 13 12 10 9 8 7 7 8 9 8 10 13 14 13 11 8 5 4 6 7 6 4 3 2 2 2 3 3 4 5 6 7 8 8 9 9 10 9 8 6 4
13 13 13 12 12 11 8 7 6 8 8 9 10 12 14 14 13 9 5 5 7 7 5 3 2 2 2 2 3 3 3 5 6 8 8 8 8 8 6 5 4 2 2
13 12 11 11 12 10 8 6 5 6 7 8 9 10 12 14 14 11 7 6 7 5 3 3 2 2 2 3 3 4 4 4 4 6 6 7 6 4 3 1 1 1 2
11 12 11 10 10 9 7 5 4 4 4 6 7 9 11 12 13 11 7 6 7 3 3 3 3 2 2 2 3 4 4 4 3 3 4 3 2 1 1 1 2 3 5
8 10 12 11 10 8 7 7 7 7 6 5 5 9 10 10 11 9 5 5 5 4 4 3 2 2 2 1 1 3 3 2 2 2 2 2 2 2 3 4 5 6 7
9 11 11 11 11 11 9 7 5 5 4 4 4 5 8 9 9 8 5 5 4 4 3 3 3 2 1 1 1 1 4 4 3 3 3 3 3 4 5 6 7 7 7
8 9 10 11 10 11 10 6 4 3 2 3 4 4 5 8 8 8 7 5 4 4 4 3 3 3 2 1 1 2 1 3 3 2 3 4 4 4 4 6 7 7 7
6 5 6 7 8 8 10 9 9 8 7 7 5 5 4 6 6 7 7 6 4 3 3 3 2 2 3 2 1 2 3 3 2 2 1 3 4 5 4 4 6 7 7
2 3 3 4 5 6 7 9 9 8 6 4 4 6 5 4 4 5 6 5 4 3 3 3 2 2 2 2 2 2 2 2 4 4 3 1 2 3 3 3 4 5 7
3 3 3 3 3 3 5 6 8 8 7 7 6 6 5 3 3 4 5 5 4 3 3 3 2 2 1 2 2 2 2 3 3 4 4 3 2 1 2 3 3 4 5
Wind_Direction
161 158 155 149 144 140 137 134 128 122 117 116 119 122 122 122 120 117 114 110 108 107 108 108 105 101 97 93 89 87 83 79 76 73 71 71 71 69 66 63 58 56 59
149 155 153 150 146 143 140 137 132 125 121 120 120 122 122 121 119 116 114 112 111 110 110 110 106 102 97 93 91 91 89 85 80 75 70 68 70 68 65 61 58 55 55
145 152 151 150 147 144 141 140 136 129 125 123 122 122 122 120 118 116 115 114 112 112 112 110 106 102 97 94 95 95 95 92 86 78 71 66 68 68 65 62 57 54 53
145 149 150 149 147 144 144 143 138 133 129 127 126 124 122 120 118 118 116 114 113 112 111 110 106 100 96 95 98 101 102 98 90 82 72 65 66 68 64 61 57 55 52
141 146 151 148 147 146 146 146 141 135 132 131 129 127 124 123 121 119 117 115 114 113 113 111 105 99 94 93 98 103 105 102 93 86 75 66 65 69 65 60 57 54 52
137 143 150 147 147 148 149 148 143 139 135 134 132 130 128 126 124 121 120 118 116 116 115 112 106 98 92 93 98 104 106 104 99 90 76 65 64 70 67 62 59 56 54
139 143 149 148 149 149 151 150 146 142 140 139 137 134 132 130 128 127 125 123 120 118 117 113 106 98 92 93 98 103 110 111 107 96 80 63 64 69 67 63 59 56 54
143 144 150 150 150 151 152 152 150 146 144 143 141 139 137 136 135 133 131 128 125 122 119 113 105 97 93 92 96 101 110 119 119 111 94 64 65 68 67 64 60 57 55
142 141 144 146 148 151 153 155 154 150 148 148 146 143 140 140 140 139 137 135 131 127 121 113 104 95 89 88 89 94 107 123 130 136 131 16 36 62 68 65 61 58 56
144 142 139 140 142 146 153 156 156 153 151 150 147 143 142 143 144 143 142 140 138 133 127 117 104 91 81 77 79 84 97 114 130 172 232 259 272 323 57 62 57 55 56
155 149 144 140 140 143 149 156 157 156 155 150 146 146 143 143 144 145 147 146 145 141 133 119 99 80 71 66 65 70 83 88 118 241 258 265 267 268 273 262 280 12 48
166 162 154 148 145 145 148 148 152 152 150 147 148 149 148 148 148 149 155 157 155 149 133 108 76 60 57 49 44 49 55 45 328 278 274 273 269 268 271 259 245 251 255
171 168 162 156 152 150 146 150 151 149 147 148 154 157 154 152 151 150 156 163 163 157 132 80 57 45 30 15 4 2 353 327 297 288 285 279 272 270 273 269 253 250 252
170 174 170 162 157 155 154 160 160 158 158 160 166 166 162 161 166 170 175 184 187 189 187 184 153 342 337 332 322 315 313 301 292 288 290 287 278 274 277 277 269 260 257
183 181 183 172 168 161 156 163 171 173 174 174 176 179 179 177 183 188 194 199 206 208 207 207 220 278 305 308 299 285 289 292 289 285 288 292 286 279 278 281 279 273 266
187 191 189 181 177 169 168 171 178 184 183 181 186 191 192 193 191 189 194 202 213 216 215 213 221 243 272 283 285 278 275 281 281 281 284 290 291 286 281 279 279 279 280
188 189 189 187 182 180 178 179 184 189 188 191 197 199 199 200 198 193 192 204 216 217 215 217 226 229 247 253 266 272 269 272 275 279 282 282 286 287 283 275 272 274 293
188 188 189 189 186 187 185 183 190 194 194 199 200 201 203 203 200 191 191 206 211 202 197 192 193 211 236 245 260 268 265 272 275 278 279 278 279 281 281 273 261 272 330
186 186 188 190 185 187 188 187 193 198 204 204 199 199 204 202 198 191 195 203 195 184 185 188 189 195 226 250 260 267 267 268 275 282 280 280 274 264 262 278 72 75 66
187 188 187 193 189 184 179 181 194 208 217 210 202 201 202 201 196 191 191 191 180 167 176 183 196 199 217 245 271 279 277 278 286 291 289 295 291 257 187 133 100 83 85
190 191 189 193 193 186 186 190 196 206 208 208 207 204 202 199 193 188 184 178 170 174 183 185 184 201 228 208 300 311 310 314 336 342 354 9 28 52 83 94 99 96 89
197 201 197 200 196 195 198 196 194 189 197 201 196 197 200 197 191 187 178 175 169 170 175 180 176 176 199 164 173 322 328 339 360 20 28 40 36 51 64 72 87 91 91
203 204 205 202 200 196 192 180 165 157 145 177 193 194 196 193 187 179 176 170 168 169 178 185 179 183 207 214 187 186 232 273 311 345 33 42 44 47 50 64 75 82 85
206 192 200 204 203 200 192 187 187 194 202 199 188 183 175 170 166 166 165 160 153 153 158 167 165 174 180 212 223 219 217 212 248 302 344 40 51 49 46 58 66 70 74
166 156 174 189 193 194 195 195 198 203 199 166 156 163 164 143 139 142 143 137 136 132 137 141 147 160 176 193 204 215 226 230 227 237 262 277 44 47 49 58 67 67 68
98 107 121 150 168 173 188 195 199 201 186 169 169 169 160 136 117 121 124 120 116 116 118 123 129 148 167 193 209 210 212 222 222 226 246 240 222 138 63 58 67 69 73
Height
1509 1514 1518 1521 1523 1525 1526 1528 1529 1530 1531 1532 1533 1534 1536 1539 1541 1543 1545 1547 1548 1549 1550 1550 1551 1552 1552 1552 1553 1553 1553 1553 1554 1554 1554 1554 1554 1553 1553 1552 1552 1552 1551
1507 1513 1517 1520 1523 1525 1526 1528 1530 1531 1532 1533 1535 1536 1538 1540 1542 1544 1546 1548 1549 1550 1551 1552 1553 1554 1554 1555 1555 1555 1556 1556 1556 1556 1556 1556 1556 1555 1555 1554 1554 1553 1553
1508 1513 1517 1520 1523 1525 1527 1528 1530 1532 1533 1535 1536 1538 1540 1542 1544 1546 1548 1549 1550 1552 1553 1554 1555 1556 1556 1557 1557 1557 1558 1558 1558 1558 1558 1558 1557 1557 1556 1556 1555 1555 1554
1508 1513 1517 1520 1523 1525 1527 1529 1531 1532 1534 1536 1537 1539 1541 1543 1545 1547 1549 1550 1552 1553 1555 1556 1557 1558 1558 1559 1559 1559 1560 1560 1560 1560 1560 1559 1559 1559 1558 1557 1557 1556 1555
1509 1513 1517 1520 1523 1525 1527 1529 1531 1533 1535 1537 1538 1540 1542 1544 1546 1548 1550 1552 1554 1555 1557 1558 1559 1559 1560 1560 1561 1561 1561 1561 1561 1561 1561 1561 1560 1560 1560 1559 1558 1557 1556
1510 1514 1517 1521 1523 1526 1528 1530 1532 1534 1536 1537 1539 1541 1543 1545 1548 1550 1552 1553 1555 1557 1558 1559 1560 1561 1561 1562 1562 1563 1563 1563 1563 1563 1562 1562 1562 1561 1561 1560 1559 1558 1557
1510 1514 1518 1521 1524 1526 1528 1530 1533 1534 1536 1538 1540 1542 1544 1546 1549 1551 1553 1555 1557 1558 1559 1560 1561 1562 1563 1563 1563 1564 1564 1564 1564 1564 1564 1563 1563 1562 1562 1561 1560 1559 1558
1511 1515 1518 1521 1524 1526 1529 1531 1533 1535 1537 1539 1541 1544 1546 1548 1550 1552 1554 1556 1558 1559 1560 1561 1562 1563 1563 1564 1564 1565 1565 1565 1565 1565 1564 1564 1563 1563 1562 1562 1561 1560 1559
1512 1515 1519 1521 1524 1527 1529 1532 1534 1536 1538 1540 1542 1545 1547 1549 1551 1553 1555 1557 1558 1560 1561 1562 1562 1563 1564 1564 1565 1565 1565 1565 1565 1565 1565 1564 1564 1563 1563 1562 1561 1560 1559
1513 1516 1519 1522 1524 1527 1530 1532 1535 1537 1539 1541 1543 1545 1547 1549 1552 1554 1556 1557 1558 1560 1561 1562 1562 1563 1564 1564 1565 1565 1565 1566 1565 1565 1565 1565 1564 1564 1563 1562 1561 1561 1560
1513 1516 1519 1522 1524 1527 1530 1532 1535 1537 1540 1542 1544 1546 1548 1550 1552 1554 1555 1557 1558 1559 1561 1562 1562 1563 1564 1564 1565 1565 1565 1565 1565 1565 1565 1564 1564 1563 1563 1562 1561 1561 1560
1511 1515 1518 1521 1524 1527 1530 1532 1535 1537 1540 1542 1544 1546 1548 1550 1552 1553 1555 1556 1558 1559 1560 1561 1562 1563 1563 1564 1564 1565 1565 1565 1565 1564 1564 1564 1563 1563 1562 1562 1561 1560 1559
1510 1514 1518 1521 1524 1527 1529 1532 1534 1537 1539 1542 1544 1546 1548 1550 1551 1553 1555 1556 1557 1558 1560 1561 1561 1562 1563 1563 1564 1564 1564 1564 1564 1563 1563 1563 1562 1562 1561 1561 1560 1559 1558
1508 1512 1516 1520 1523 1526 1529 1532 1534 1536 1539 1541 1543 1546 1548 1549 1551 1553 1554 1555 1556 1558 1559 1560 1561 1561 1562 1562 1563 1563 1563 1563 1563 1562 1562 1561 1561 1560 1560 1559 1558 1558 1557
1507 1511 1515 1518 1521 1525 1528 1530 1533 1536 1538 1540 1543 1545 1547 1549 1550 1552 1553 1554 1555 1556 1557 1558 1559 1560 1561 1561 1561 1561 1561 1561 1561 1560 1560 1559 1559 1558 1558 1557 1557 1556 1555
1504 1508 1512 1516 1520 1523 1526 1529 1532 1535 1537 1539 1541 1544 1546 1547 1549 1550 1551 1553 1554 1555 1556 1557 1558 1558 1559 1559 1559 1560 1559 1559 1558 1558 1557 1557 1556 1556 1555 1555 1554 1554 1553
1501 1506 1509 1513 1518 1521 1525 1527 1531 1533 1536 1538 1540 1542 1544 1546 1547 1548 1550 1551 1552 1553 1554 1555 1556 1556 1557 1557 1557 1557 1557 1556 1556 1555 1555 1554 1553 1553 1552 1552 1551 1551 1551
1499 1502 1507 1511 1515 1519 1522 1526 1529 1531 1533 1536 1538 1540 1542 1543 1545 1546 1547 1549 1550 1551 1552 1553 1554 1554 1555 1555 1555 1554 1554 1553 1553 1552 1551 1550 1550 1549 1549 1548 1548 1548 1548
1496 1500 1505 1509 1512 1516 1519 1523 1526 1528 1531 1533 1535 1537 1539 1541 1542 1544 1545 1547 1548 1549 1550 1551 1552 1552 1552 1552 1552 1551 1551 1550 1549 1548 1547 1546 1546 1545 1545 1545 1545 1545 1545
1494 1498 1502 1507 1510 1514 1516 1519 1522 1525 1527 1530 1532 1535 1537 1538 1540 1541 1542 1544 1545 1546 1547 1548 1549 1549 1549 1549 1548 1548 1547 1546 1545 1544 1543 1542 1542 1542 1542 1542 1542 1542 1543
1493 1496 1499 1503 1506 1510 1513 1516 1518 1521 1524 1526 1529 1531 1533 1535 1537 1538 1540 1541 1542 1544 1545 1546 1546 1546 1546 1546 1545 1544 1543 1542 1541 1540 1539 1539 1539 1539 1539 1539 1539 1540 1540
1489 1493 1496 1499 1503 1506 1509 1512 1515 1518 1520 1523 1525 1528 1529 1531 1534 1535 1537 1538 1540 1541 1542 1543 1543 1543 1543 1543 1542 1541 1539 1539 1537 1537 1536 1536 1536 1537 1537 1537 1537 1537 1537
1487 1490 1493 1497 1500 1503 1506 1509 1512 1514 1516 1519 1521 1524 1526 1528 1530 1532 1533 1535 1536 1537 1538 1539 1539 1539 1539 1539 1539 1539 1538 1536 1535 1534 1534 1534 1534 1534 1534 1534 1534 1534 1534
1485 1488 1491 1494 1496 1499 1502 1504 1507 1509 1511 1514 1517 1519 1522 1524 1526 1528 1530 1531 1533 1534 1535 1535 1536 1536 1536 1535 1535 1534 1535 1534 1533 1531 1531 1531 1530 1531 1531 1531 1530 1530 1530
1483 1486 1489 1491 1493 1496 1499 1501 1504 1506 1508 1510 1513 1515 1518 1520 1522 1524 1526 1528 1529 1530 1531 1531 1532 1532 1531 1531 1530 1530 1529 1529 1529 1529 1527 1527 1527 1527 1527 1527 1527 1527 1527
1481 1484 1487 1489 1491 1493 1496 1497 1500 1502 1504 1506 1508 1511 1513 1516 1518 1520 1522 1523 1525 1526 1527 1527 1527 1527 1527 1526 1526 1525 1525 1525 1524 1524 1523 1522 1522 1523 1523 1523 1523 1523 1523